Terminal Aerodrome Forecast
Issued by NWS Amarillo, TX

Home | Current Version | Previous Version | Text Only | Print | Product List | Glossary On
Versions: 1 2 3 4 5 6 7 8 9 10 11 12 13 14 15 16 17 18 19 20
967
FTUS44 KAMA 302340
TAFGUY
TAF
KGUY 302340Z 0100/0124 32015G23KT P6SM OVC050
     FM010200 34020G30KT P6SM OVC040
     FM011000 36016G24KT P6SM -RA OVC020=

USA.gov is the U.S. government's official web portal to all federal, state and local government web resources and services.